TimeEST,TemperatureF,Dew PointF,Humidity,Sea Level PressureIn,VisibilityMPH,Wind Direction,Wind SpeedMPH,Gust SpeedMPH,PrecipitationIn,Events,Conditions,WindDirDegrees,DateUTC
12:54 AM,39.9,28.9,65,30.19,10.0,West,3.5,-,N/A,,Clear,280,2013-01-07 05:54:00
1:54 AM,37.0,28.9,73,30.19,10.0,Calm,Calm,-,N/A,,Partly Cloudy,0,2013-01-07 06:54:00
2:54 AM,34.0,28.9,82,30.21,10.0,Calm,Calm,-,N/A,,Clear,0,2013-01-07 07:54:00
3:54 AM,30.9,27.0,85,30.23,10.0,Calm,Calm,-,N/A,,Clear,0,2013-01-07 08:54:00
4:54 AM,32.0,27.0,82,30.25,10.0,NW,4.6,-,N/A,,Clear,310,2013-01-07 09:54:00
5:54 AM,36.0,28.0,73,30.27,10.0,NW,4.6,-,N/A,,Clear,320,2013-01-07 10:54:00
6:54 AM,34.0,27.0,75,30.32,10.0,Calm,Calm,-,N/A,,Clear,0,2013-01-07 11:54:00
7:54 AM,30.9,25.0,79,30.35,10.0,WNW,3.5,-,N/A,,Clear,300,2013-01-07 12:54:00
8:54 AM,39.9,28.0,63,30.38,10.0,NNW,8.1,-,N/A,,Clear,340,2013-01-07 13:54:00
9:54 AM,44.1,28.9,55,30.42,10.0,North,8.1,-,N/A,,Clear,350,2013-01-07 14:54:00
10:54 AM,46.0,28.0,50,30.42,10.0,Variable,5.8,-,N/A,,Clear,0,2013-01-07 15:54:00
11:54 AM,48.0,28.9,48,30.40,10.0,North,8.1,-,N/A,,Clear,360,2013-01-07 16:54:00
12:54 PM,48.9,28.0,44,30.38,10.0,Calm,Calm,-,N/A,,Clear,0,2013-01-07 17:54:00
1:54 PM,50.0,28.0,43,30.37,10.0,Calm,Calm,-,N/A,,Clear,0,2013-01-07 18:54:00
2:54 PM,51.1,28.0,41,30.38,10.0,Calm,Calm,-,N/A,,Clear,0,2013-01-07 19:54:00
3:54 PM,50.0,28.0,43,30.39,10.0,ESE,4.6,-,N/A,,Clear,110,2013-01-07 20:54:00
4:54 PM,48.9,28.0,44,30.40,10.0,Calm,Calm,-,N/A,,Clear,0,2013-01-07 21:54:00
6:54 PM,37.9,30.0,73,30.41,10.0,Calm,Calm,-,N/A,,Clear,0,2013-01-07 23:54:00
7:54 PM,36.0,28.9,76,30.43,10.0,Calm,Calm,-,N/A,,Clear,0,2013-01-08 00:54:00
8:54 PM,34.0,28.0,79,30.42,10.0,Calm,Calm,-,N/A,,Clear,0,2013-01-08 01:54:00
9:54 PM,32.0,27.0,82,30.42,10.0,Calm,Calm,-,N/A,,Clear,0,2013-01-08 02:54:00
10:54 PM,28.9,27.0,92,30.41,10.0,Calm,Calm,-,N/A,,Clear,0,2013-01-08 03:54:00
11:54 PM,28.9,27.0,92,30.41,8.0,Calm,Calm,-,N/A,,Clear,0,2013-01-08 04:54:00